Location: Leverkusen
(51.0459°N, 7.0192°E)
Time: 07:39:18
(UTC+01:00)

ISS - Pass Details

Date: 31 January 2019
Orbit: 403 x 411 km, 51.6° (Epoch: 21 February)

Event Time Altitude Azimuth Distance (km) Brightness Sun altitude
Rises 18:07:32 0° 257° (WSW) 2,330 2.5 -7.6°
Reaches altitude 10° 18:09:37 10° 257° (WSW) 1,472 0.7 -7.9°
Maximum altitude 18:12:55 88° 172° (S) 415 -3.8 -8.4°
Enters shadow 18:15:53 13° 80° (E) 1,336 -1.9 -8.9°
